Powrót do katalogu

STARLINK-3159

AktywnyŁącznośćVLEO
NORAD 49415·PAYLOAD·🇺🇸 United States

Wystrzelony Nov 13, 2021 z Cape Canaveral Space Force Station

Loading…

Następne Przeloty (najbliższe 24 godziny)

TLE

ŚwieżeSource: CelesTrak SupGP

Epoka: Sep 14, 2026, 21:12 UTC

1 49415C 21104H   26257.88381944  .00028673  00000+0  84718-3 0  2571
2 49415  53.1579  77.6343 0001193  82.0197  60.5618 15.34375169    17

Śledź STARLINK-3159 w czasie rzeczywistym z AllMySat

Download on the App Store